Reflectivity
15 6 7 2 -20 -20 -20 -19 1 5 -5 1 5 3 5 12 6 -12 -20 -20 -20 -20 -20 -20 -20 4 -15 -18 12 -4 -20 -20 -20 -20 -20 -20 -20 -20 -20 -20 -20 -20 -20 -20 -20 -20 -20 -20 -20 -20 -20 -20 -20 -20
-3 -19 -17 11 -19 -20 -20 -9 -2 4 1 -2 4 1 5 13 7 11 -20 -20 -20 -20 -20 -15 -12 -20 -20 -20 -17 -13 -20 -20 -20 -20 -20 -20 -20 -20 -20 -20 -20 -20 -20 -20 -20 -20 -20 -20 -20 -20 -20 -20 -20 -20
-20 -20 -20 -20 -10 10 5 -12 -3 -5 1 -20 5 3 -8 -4 5 12 -20 -17 -17 -20 -20 3 -16 -12 -10 11 13 17 -20 -20 -20 -20 -20 -20 -20 -20 -20 -20 -20 -20 -20 -20 -20 -20 -20 -20 -20 -20 -20 -20 -20 -20
-17 -20 -1 18 16 12 12 2 -8 1 -10 -6 -4 3 -20 -2 8 18 -19 8 -20 -20 -7 -6 10 -20 -11 21 25 26 17 17 -13 -20 -20 -20 -20 -20 -20 -20 -20 -20 -20 -20 -20 -20 -20 -20 -20 -20 -20 -20 -20 -20
-20 -19 7 8 11 11 5 -4 -2 0 1 11 -5 2 -20 4 21 16 -20 -8 -20 -19 -18 -2 10 -20 -13 9 5 8 23 16 -20 -20 -20 -20 -20 -20 -20 -20 -20 -20 -20 -20 -20 -20 -20 -20 -20 -20 -20 -20 -20 -20
-20 -20 4 3 9 16 17 18 -2 6 -4 13 -2 -8 7 11 23 11 11 10 -20 -15 36 30 16 1 7 10 9 23 5 -19 -20 -20 -20 -20 -20 -20 -20 -20 -20 -20 -20 -20 -20 -20 -20 -20 -20 -20 -20 -20 -20 -20
-20 -20 -20 1 13 -0 -4 21 9 11 -5 -2 -6 7 20 12 16 14 12 -16 4 39 38 37 37 15 13 13 12 30 20 -20 -7 -19 -20 -20 -20 -20 -20 -20 -20 -20 -20 -20 -20 -20 -20 -20 -20 -20 -20 -20 -20 -20
-16 9 4 2 19 7 -1 18 17 18 8 -11 5 17 20 17 14 13 25 26 26 34 31 33 31 23 34 34 30 15 -9 -20 -20 -20 -20 -20 -20 -20 -20 -20 -20 -20 -20 -20 -20 -20 -20 -20 -20 -20 -20 -20 -20 -20
26 30 14 35 25 1 11 23 21 9 -0 16 17 21 16 22 28 22 26 37 38 29 34 38 29 28 5 11 18 -4 -20 -16 -20 -20 -20 -20 -20 -20 -20 -20 -20 -20 -20 -20 -20 -20 -20 -20 -20 -20 -20 -20 -20 -20
17 28 13 25 20 11 33 28 14 20 25 17 19 27 33 32 25 29 34 44 43 34 34 31 -13 15 17 26 13 -18 -20 -19 -20 -20 -20 -20 -20 -20 -20 -20 -20 -20 -20 -20 -20 -20 -20 -20 -20 -20 -20 -20 -20 -20
30 35 32 33 32 28 18 32 32 30 24 29 38 31 31 16 30 41 37 40 39 41 19 -20 -6 -10 -16 -20 -20 -17 -20 -20 -20 -20 -20 -20 -20 -20 -20 -20 -20 -20 -20 -20 -20 -20 -20 -20 -20 -20 -20 -20 -20 -20
23 29 36 31 25 32 15 18 26 32 28 28 17 26 24 37 40 30 31 35 34 18 -18 -20 -16 4 0 -8 -11 -1 -20 -20 -20 -20 -20 -20 -20 -20 -20 -20 -20 -20 -20 -20 -20 -20 -20 -20 -20 -20 -20 -20 -20 -20
22 25 31 29 19 15 18 21 15 14 20 12 18 39 34 30 29 30 24 28 18 -19 -20 -20 -15 7 20 20 17 1 -20 -20 -20 -20 -20 -20 -20 -20 -20 -20 -20 -20 -20 -20 -20 -20 -20 -20 -20 -20 -20 -20 -20 -20
29 30 24 19 13 15 20 17 -4 -20 -13 27 34 27 26 28 30 13 -4 -10 -20 -20 -20 -20 -1 25 28 25 16 -20 -20 -20 -20 -20 -20 -20 -20 -20 -20 -20 -20 -20 -20 -20 -20 -20 -20 -20 -20 -20 -20 -20 -20 -20
24 23 14 16 12 10 -20 -20 -18 13 28 22 23 21 14 -6 -10 -17 -20 -20 -20 -19 -20 -16 -0 7 3 2 -20 -20 -20 -20 -20 -20 -20 -20 -20 -20 -20 -20 -20 -20 -20 -20 -20 -20 -20 -20 -20 -20 -20 -20 -20 -20
29 27 28 19 13 -20 -14 5 24 33 41 4 27 -20 -18 -20 -20 -20 -12 2 -7 -20 0 11 18 22 10 -13 -20 -20 -20 -20 -20 -20 -20 -20 -20 -20 -20 -20 -20 -20 -20 -20 -20 -20 -20 -20 -20 -20 -20 -20 -20 -20
27 28 24 -17 -18 -13 19 25 23 44 38 12 -12 -20 -20 -20 -20 -20 4 -8 -14 -5 17 26 18 -9 -13 -20 -20 -20 -20 -20 -20 -20 -20 -20 -20 -20 -20 -20 -20 -20 -20 -20 -20 -20 -20 -20 -20 -20 -20 -20 -20 -20
-7 -8 -20 -20 -6 21 39 35 23 26 31 23 -18 11 -3 -18 -12 5 9 5 12 5 -13 -1 -3 -20 -20 -20 -20 -20 -20 -20 -20 -20 -20 -20 -20 -20 -20 -20 -20 -20 -20 -20 -20 -20 -20 -20 -20 -20 -20 -20 -20 -20
-20 -20 -1 1 5 23 37 35 41 25 -5 12 11 11 6 8 16 19 9 15 16 4 -10 -13 -20 -20 -20 -20 -20 -13 -19 -20 -20 -20 -20 -20 -20 -20 -20 -20 -20 -20 -20 -20 -20 -20 -20 -20 -20 -20 -20 -20 -20 -20
-20 -20 -12 8 1 26 34 17 23 0 30 20 14 -4 -13 -16 -19 17 2 8 -8 -16 -20 -3 -20 -20 -20 -15 -3 -16 -20 -20 -20 -20 -20 -20 -20 -20 -20 -20 -20 -20 -20 -20 -20 -20 -20 -20 -20 -20 -20 -20 -20 -20
-20 -16 10 21 18 37 37 22 -20 -20 -20 -7 -20 -20 -20 12 13 -6 -9 -1 -20 -20 -20 -20 -20 -20 -20 -20 -20 -20 -20 -20 -20 -20 -20 -20 -20 -20 -20 -20 -20 -20 -20 -20 -20 -20 -20 -20 -20 -20 -20 -20 -20 -20
-17 6 31 32 34 42 10 -20 -20 -20 -20 -3 -20 -20 -3 7 -18 -20 -1 -18 -20 -20 -20 -20 -20 -20 -20 -20 -20 -20 -20 -20 -20 -20 -20 -20 -20 -20 -20 -20 -20 -20 -20 -20 -20 -20 -20 -20 -20 -20 -20 -20 -20 -20
-2 27 33 28 33 20 -15 -20 -20 -20 -20 -20 -20 -17 -17 -20 -20 -20 -20 -20 -20 -20 -20 -20 -20 -20 -20 -20 -20 -20 -20 -20 -20 -20 -20 -20 -20 -20 -20 -20 -20 -20 -20 -20 -20 -20 -20 -20 -20 -20 -20 -20 -20 -20
7 16 21 28 21 12 -14 -20 -20 -20 -20 -20 -20 -20 -20 -20 -13 -13 -20 -20 -20 -20 -20 -20 -18 -8 -20 -20 -20 -20 -20 -20 -20 -20 -20 -20 -20 -20 -20 -20 -20 -20 -20 -20 -20 -20 -20 -20 -20 -20 -20 -20 -20 -20
36 29 29 20 -13 10 -2 -20 -20 -20 -20 -20 -20 -20 -20 -20 -20 -20 -20 -18 -18 -20 -20 -20 -20 -20 -20 -20 -20 -20 -20 -20 -20 -20 -20 -20 -20 -20 -20 -20 -20 -20 -20 -20 -20 -20 -20 -20 -20 -20 -20 -20 -20 -20
25 24 17 6 -16 -17 -20 -20 -20 -20 -20 -20 -20 -20 -20 -20 -20 -20 -20 -19 -3 10 -10 -20 -20 -20 -20 -20 -20 -20 -20 -20 -20 -20 -20 -20 -20 -20 -20 -20 -20 -20 -20 -20 -20 -20 -20 -20 -20 -20 -20 -20 3 -17
16 18 4 -20 -19 -19 -11 -8 -16 3 -7 -20 -20 -20 -20 -14 -17 -20 10 12 4 -5 -19 -20 -19 -20 -20 -20 -20 -20 -20 -20 -20 -20 -20 -20 -20 -20 -20 -20 -20 -20 -20 -20 -20 -20 -20 -20 -20 -20 -20 -20 -20 -20
-16 -20 -20 -20 -20 -20 -3 -5 -18 -20 -20 -20 -20 -13 -20 -20 -20 -4 11 11 6 -19 -20 -20 -20 -20 -20 -20 -20 -20 -20 -20 -20 -20 -20 -20 -20 -20 -20 -20 -20 -20 -20 -20 -20 -20 -20 -20 -20 -20 -20 -20 -20 -20
-20 -20 -20 -20 -3 -18 -20 -20 -20 -20 -20 -20 -20 -20 -20 -20 -20 -20 -12 -20 -20 -20 -20 -20 -20 -20 -20 -20 -20 -20 -20 -20 -20 -20 -20 -20 -20 -20 -20 -20 -20 -20 -20 -20 7 0 -20 -20 -20 -20 -20 -20 -20 -20
-20 -20 -20 -6 -2 -15 -20 -20 -20 -20 -20 -20 -20 -20 -20 -20 -20 -20 -20 -20 -20 -20 -20 -20 -20 -20 -20 -20 -20 -20 -20 -20 -20 -20 -20 -20 -20 -20 -20 -20 -20 -20 -20 -20 -20 -20 8 1 -3 -8 -8 -20 -20 -20
-20 -20 -20 -20 -20 -20 -20 -20 -20 -20 -20 -20 -20 -20 -20 -20 -20 -20 -20 -20 -20 -20 -20 -20 -18 -20 -20 -20 -20 -20 -20 -20 -20 -20 -17 -20 -20 -20 -20 -20 6 10 -3 -20 -20 -20 -20 -19 -20 -20 -20 -20 -18 -1
-20 -20 -20 -20 -20 -20 -20 -20 -20 -20 -20 -20 -20 -20 -20 -20 -20 -20 -20 -20 -20 -20 -20 -20 -20 -20 -20 -20 -20 -20 -11 -20 -20 -20 -20 -20 -20 -20 6 -11 -16 3 -15 -20 -20 -20 -20 -20 -20 -20 -20 -20 -20 -20
-20 -20 -20 -20 -20 -20 -20 -20 -20 -20 -20 -20 -20 -20 -20 -20 -20 -20 -20 -19 -20 -20 -20 -20 -20 -20 -20 -20 -20 -20 -20 -20 -20 -20 -20 -20 -20 -20 -20 -20 6 12 -1 4 -4 -20 -20 -20 -20 -19 -7 6 -4 -12
Wind_Speed
28 27 26 25 26 26 27 28 29 31 33 34 35 34 34 36 37 17 4 4 6 1 7 1 5 16 12 16 12 7 6 5 4 5 5 5 4 6 4 6 8 7 7 5 3 1 11 7 5 10 9 2 4 5
28 26 25 26 27 28 29 30 30 31 33 35 35 35 34 37 37 25 4 4 2 3 3 3 8 17 18 19 13 1 7 8 7 7 1 5 3 3 6 4 3 6 10 8 11 10 6 6 5 6 6 5 5 6
27 26 28 29 30 31 33 33 33 34 35 35 36 36 36 38 37 25 4 6 4 2 9 7 10 9 10 20 15 8 3 6 3 3 6 4 4 5 6 6 4 5 5 4 3 7 12 9 7 4 6 6 6 5
27 27 28 32 34 35 37 38 37 37 37 37 38 37 38 38 36 27 6 7 4 4 4 7 11 13 11 12 5 3 11 6 8 4 4 4 4 4 5 3 5 6 10 8 5 7 5 9 10 8 6 6 6 7
27 31 30 32 34 38 43 42 40 40 40 39 39 38 38 38 34 16 3 6 7 5 5 6 6 5 6 13 12 9 13 8 3 4 4 4 3 4 0 2 4 7 9 8 11 10 9 6 12 10 9 8 9 11
28 30 29 31 34 35 38 46 43 42 42 41 39 39 37 36 33 10 4 5 7 1 4 3 5 1 5 14 12 10 8 5 4 5 3 3 2 4 4 5 7 9 9 9 7 7 8 3 8 13 13 10 8 11
26 27 27 30 37 41 40 45 45 43 42 40 39 36 38 36 19 14 7 6 17 5 3 5 3 3 10 8 4 4 3 3 4 3 3 4 2 4 3 6 6 9 13 8 5 8 2 5 6 10 9 10 12 9
17 18 21 28 41 43 43 46 44 44 42 40 36 37 35 34 15 12 5 6 16 7 3 4 4 6 2 5 5 1 3 4 5 3 1 4 1 2 7 7 9 6 7 8 11 9 9 8 6 7 6 8 9 8
2 7 15 31 40 42 43 45 45 44 40 38 37 36 20 11 7 7 18 3 5 8 6 5 7 7 2 4 4 3 2 3 2 2 2 4 3 8 9 11 8 8 8 7 8 9 5 7 10 8 9 9 9 9
10 19 27 33 39 41 44 46 44 42 42 42 26 13 3 6 21 15 3 6 11 6 5 6 3 7 13 4 2 5 2 4 3 5 3 4 6 8 10 9 8 8 10 7 7 6 7 7 9 9 10 10 12 13
18 25 30 35 38 41 43 43 44 45 43 12 5 3 3 26 4 9 8 6 6 7 6 5 9 17 1 9 6 2 4 3 4 6 6 4 7 7 12 20 13 9 9 11 8 6 9 9 11 9 6 8 8 10
22 26 28 33 38 42 43 45 47 20 9 8 10 7 7 5 5 7 7 5 8 8 3 14 13 11 5 5 6 1 5 2 6 4 4 6 7 8 5 6 7 10 11 10 10 10 9 9 10 11 11 9 9 9
26 30 33 35 39 42 44 44 23 27 22 5 7 5 6 4 6 9 9 5 7 5 12 17 13 5 4 6 5 4 5 5 5 2 7 8 4 3 5 3 5 7 8 8 8 7 8 8 8 9 9 6 9 10
29 29 33 35 37 40 39 27 25 18 6 6 7 9 8 9 8 7 4 6 5 16 21 19 11 6 3 4 4 6 2 5 3 3 9 6 7 8 6 3 5 7 9 10 10 9 8 9 9 8 9 10 11 11
31 28 30 31 36 35 27 23 17 2 1 2 5 9 8 2 0 3 5 10 17 18 19 10 6 6 3 5 1 5 5 6 8 8 6 5 7 7 7 5 5 6 7 7 7 7 7 8 8 7 7 8 8 9
30 26 15 30 32 29 21 15 4 3 3 2 2 3 4 4 3 3 14 19 16 15 6 6 5 6 3 6 6 9 9 9 7 6 5 4 7 7 7 6 6 6 7 7 7 7 7 8 9 8 7 7 7 12
22 5 30 29 30 25 18 4 4 2 1 3 1 1 1 3 3 9 16 18 16 14 7 5 6 7 5 4 4 6 8 6 5 4 3 6 8 8 7 7 6 6 6 7 6 7 7 7 8 8 8 5 6 5
7 22 30 30 22 16 4 4 2 1 2 1 2 1 1 1 9 12 11 13 16 5 5 6 7 5 7 9 4 6 5 1 2 5 5 4 6 7 6 8 6 6 6 6 7 8 8 9 9 6 7 8 7 6
20 21 30 30 12 7 3 2 4 4 3 1 1 2 4 3 0 9 13 5 4 4 7 4 5 5 6 6 6 4 4 4 5 4 3 5 7 8 7 6 6 5 7 7 7 7 7 8 7 7 7 8 6 5
31 29 27 13 8 4 4 4 2 5 3 1 3 4 3 2 5 9 6 3 4 3 4 2 3 3 5 4 5 4 5 7 8 6 3 3 3 7 6 6 4 5 5 6 6 6 5 4 3 5 6 7 8 7
26 13 12 4 4 2 0 2 3 3 3 4 1 3 3 4 5 3 2 2 5 2 1 3 3 4 4 1 3 6 8 8 5 4 6 5 2 5 4 4 5 4 4 4 5 4 4 5 5 5 5 5 3 5
4 11 4 3 4 1 2 3 4 2 4 2 5 4 5 3 2 3 0 5 2 3 3 2 2 1 3 5 4 6 8 8 7 6 7 9 5 4 4 5 5 5 5 6 6 6 5 4 4 4 5 4 4 4
8 6 4 5 2 1 1 3 5 3 6 3 3 4 2 3 1 2 4 1 3 2 1 2 2 5 6 5 7 8 6 8 5 5 5 5 4 3 4 4 4 6 4 3 3 4 5 6 5 5 4 4 3 3
10 6 4 4 4 4 2 3 2 3 5 4 3 3 2 2 0 4 3 2 3 1 2 4 4 5 5 6 4 3 4 4 5 4 3 6 5 3 4 4 4 4 4 5 4 4 4 4 6 5 5 4 3 3
6 3 4 3 1 5 4 2 2 5 5 3 5 2 0 2 3 2 3 3 2 2 2 4 3 4 5 2 1 1 2 4 5 5 4 3 4 3 2 2 2 3 4 6 4 4 4 5 5 6 7 8 9 9
8 4 4 1 1 3 2 4 3 4 5 5 3 3 2 3 3 3 4 4 4 5 5 7 6 4 2 3 4 3 4 4 5 3 3 5 5 5 5 5 3 3 5 4 7 6 7 7 7 9 8 9 10 9
4 3 2 1 3 4 5 4 4 5 5 4 3 3 4 3 4 4 2 2 3 3 4 5 6 6 5 4 1 2 4 5 4 4 3 5 5 5 5 6 6 5 6 7 7 8 10 10 9 10 9 6 8 11
1 3 4 5 5 4 6 4 3 3 3 2 5 4 8 8 5 3 3 2 2 2 4 4 4 4 4 4 3 4 2 2 4 4 3 4 2 1 3 2 2 6 5 6 7 8 7 8 9 9 11 11 9 8
4 4 4 8 6 6 5 3 2 1 1 3 5 3 4 2 1 1 2 2 2 3 6 6 2 2 4 4 3 2 2 5 6 4 2 2 3 4 2 3 3 3 2 5 9 7 8 7 8 8 7 7 4 5
5 4 5 4 5 4 2 3 2 2 2 2 2 2 2 3 1 2 2 2 3 4 3 4 3 2 3 4 3 2 1 1 2 5 5 5 7 2 3 4 4 4 3 4 5 4 5 4 4 3 4 4 4 4
4 3 5 5 4 3 3 3 2 2 3 4 3 5 2 3 4 3 4 3 4 4 4 4 3 2 4 3 2 2 3 2 5 5 4 2 1 1 2 3 4 3 4 6 6 5 5 4 5 6 7 8 8 7
5 5 3 5 3 5 5 5 3 4 6 6 5 4 5 6 5 4 2 3 4 4 1 3 3 3 4 2 0 1 3 1 2 3 5 3 3 2 3 3 2 2 4 5 6 6 7 8 6 7 6 8 8 9
4 5 5 4 6 6 5 4 6 4 5 4 3 1 0 3 2 4 3 1 2 4 4 4 2 0 1 3 4 3 4 4 4 4 5 4 5 3 2 3 3 5 7 7 7 5 7 8 7 7 7 7 10 10
Wind_Direction
264 252 243 229 221 215 211 210 207 200 196 194 194 192 189 186 184 179 195 179 182 204 263 209 266 194 159 172 163 196 99 318 49 78 120 185 136 209 132 177 175 154 146 177 112 112 274 173 100 169 213 227 151 165
260 248 236 225 218 214 210 206 203 196 193 190 191 189 186 184 184 176 190 153 113 151 276 340 283 274 213 181 146 349 152 171 172 95 65 114 118 135 159 210 160 196 186 179 183 210 231 237 209 217 164 150 171 143
251 242 234 226 221 214 208 205 200 195 191 187 188 186 185 186 183 177 119 131 101 33 294 278 271 285 327 192 167 143 273 133 114 153 153 157 149 135 161 229 158 228 166 194 102 240 225 235 243 249 192 173 164 143
251 240 234 232 226 216 208 203 198 193 189 185 184 185 183 183 180 175 157 162 130 133 226 279 241 245 237 169 119 120 123 67 108 98 110 139 164 180 193 162 177 194 151 169 268 271 290 234 219 202 206 168 142 141
254 245 246 235 226 214 205 198 195 190 185 183 182 181 182 180 174 167 94 183 209 177 181 236 233 241 157 138 111 119 117 119 114 92 92 199 150 128 137 106 226 187 173 171 215 213 189 229 197 180 180 183 169 158
262 260 246 228 211 199 197 190 189 184 180 181 179 179 176 169 163 143 144 241 203 258 335 282 303 206 114 118 120 131 112 94 96 128 177 217 230 113 164 218 244 200 200 180 203 186 205 203 193 183 183 193 176 170
276 265 239 222 202 193 187 185 180 176 172 174 177 171 167 165 163 174 179 144 172 206 182 259 203 23 102 90 46 50 360 94 101 118 188 146 182 126 168 221 243 210 218 213 180 120 154 172 212 182 185 182 173 175
276 248 239 210 179 174 173 174 168 165 165 170 165 163 160 163 156 196 254 132 150 175 239 239 232 94 81 116 133 80 86 38 22 154 86 126 73 99 250 234 231 225 212 200 196 203 180 186 180 179 161 133 149 170
330 199 138 143 152 155 162 156 155 157 157 153 149 147 144 178 186 169 220 37 232 168 197 220 172 140 127 72 92 56 82 81 300 125 214 112 187 219 224 216 218 201 190 207 192 197 187 172 186 183 163 164 168 179
84 136 138 141 144 143 142 144 149 144 143 139 140 156 178 175 95 93 70 247 189 168 211 200 164 143 148 150 88 100 25 147 152 237 106 173 249 244 243 223 219 201 198 164 134 186 191 206 188 176 185 180 183 180
101 109 122 124 127 131 135 137 137 137 139 143 122 116 133 119 138 169 214 192 195 179 197 158 147 134 80 122 135 175 156 139 156 237 152 240 261 241 217 228 225 188 189 198 202 189 188 179 181 181 187 183 164 153
114 121 119 122 126 130 131 135 140 139 130 121 117 113 98 147 197 179 202 180 197 173 163 138 134 126 93 111 101 214 114 127 211 134 116 252 244 230 184 208 215 196 183 193 194 195 192 188 185 183 183 173 171 163
127 126 127 128 128 130 135 142 124 120 118 78 71 121 152 161 205 200 173 189 144 163 147 139 127 107 81 67 65 115 124 192 105 92 227 231 241 235 189 193 253 201 185 176 182 183 190 198 168 165 176 169 144 148
119 120 123 128 134 137 144 129 134 137 106 116 176 136 203 188 212 200 174 138 159 138 140 132 107 114 126 89 140 110 160 120 140 201 233 240 212 205 196 205 152 183 181 177 180 184 183 176 182 175 166 153 148 157
128 125 128 134 139 145 137 141 140 108 184 151 126 177 200 198 186 177 160 117 129 139 130 120 62 89 93 99 150 116 147 212 205 223 226 224 195 165 172 165 156 153 173 182 176 169 169 166 159 160 157 153 152 137
132 125 129 139 146 157 131 135 64 48 309 4 297 59 28 67 326 127 124 125 135 127 98 62 113 100 158 145 154 205 155 206 227 210 212 171 165 156 152 161 173 161 159 169 165 158 148 151 160 159 124 137 147 155
145 111 144 143 151 160 134 94 46 231 80 171 265 17 121 90 129 127 138 133 142 141 132 132 122 168 110 127 201 189 207 213 199 196 183 170 152 149 149 155 157 152 143 148 141 143 142 118 111 117 139 160 146 148
91 137 147 148 143 128 32 26 45 313 124 320 116 270 312 94 145 134 139 150 150 113 128 154 122 151 172 170 215 224 212 213 162 153 164 144 123 133 148 155 158 151 146 145 140 132 131 139 151 166 130 131 115 112
139 142 140 141 121 94 111 216 223 174 105 144 20 32 80 97 101 127 127 103 73 96 103 81 134 172 198 207 192 165 166 168 144 150 151 143 135 141 154 142 139 134 139 135 138 151 158 164 165 147 142 145 148 141
132 134 138 102 69 90 146 235 184 87 88 184 59 47 84 93 132 108 95 75 83 75 64 89 226 226 199 222 179 166 133 134 127 110 106 95 114 130 151 146 154 137 115 100 90 94 103 80 89 133 151 150 142 166
114 108 66 74 66 40 342 260 61 92 119 78 4 64 61 25 67 81 62 18 64 71 155 211 239 268 262 275 136 123 123 137 138 138 152 136 146 140 135 128 128 123 123 136 139 136 141 176 166 153 144 162 152 147
92 109 103 21 90 209 112 19 105 132 66 72 39 36 72 65 31 25 114 58 88 223 183 162 262 22 59 89 95 99 112 99 91 93 82 107 124 141 164 161 132 152 159 168 162 168 180 170 148 139 147 158 136 146
82 48 64 62 104 34 326 3 76 47 94 104 59 72 41 71 349 332 67 49 236 263 174 97 55 56 78 53 81 78 96 110 106 115 119 120 128 142 139 155 144 140 150 212 169 165 168 147 149 147 119 114 127 119
49 50 52 29 46 93 25 22 57 96 95 84 93 98 67 123 358 54 80 292 257 299 133 132 115 75 47 49 65 90 97 103 98 88 134 132 141 187 179 168 160 174 177 150 158 152 133 149 137 135 142 140 142 145
95 72 158 151 175 105 107 103 86 69 87 84 82 57 62 50 74 90 171 262 242 191 184 109 106 115 124 107 59 100 96 132 146 157 204 152 120 83 63 107 147 186 154 129 136 146 143 135 157 161 172 181 188 194
64 355 51 113 80 101 113 76 73 107 103 89 95 129 98 102 98 210 212 197 199 184 171 170 167 137 167 174 156 170 199 167 133 126 197 182 175 154 166 151 144 272 201 159 139 148 163 174 179 187 198 205 203 197
58 318 285 253 125 107 78 55 53 70 83 120 155 95 87 102 234 251 292 253 189 216 157 146 154 165 168 163 187 194 166 163 159 178 178 174 189 183 152 158 191 227 164 168 160 155 164 175 188 199 207 201 207 208
67 14 55 322 54 46 104 80 86 117 161 159 98 125 145 173 203 236 215 263 250 97 110 117 132 139 145 181 175 133 90 111 101 95 72 48 36 199 193 161 125 172 158 168 163 166 167 169 184 193 205 214 215 196
39 347 44 23 32 42 42 92 142 118 104 105 112 160 192 188 225 295 319 312 93 98 109 115 61 87 89 67 69 30 124 140 118 109 157 251 339 295 197 188 171 195 156 160 186 182 173 180 195 199 196 202 191 163
20 357 84 50 67 52 323 3 41 349 2 87 122 103 55 37 334 304 56 36 72 89 88 84 77 90 130 128 124 29 354 165 121 138 162 210 226 219 189 202 210 195 154 160 163 129 126 124 131 140 157 160 173 177
336 27 59 53 61 15 335 314 346 84 32 32 3 83 61 337 339 19 42 45 71 79 84 81 72 59 128 153 154 149 280 253 209 205 200 197 177 224 236 238 231 191 161 158 161 171 162 161 186 195 190 196 196 199
10 28 82 59 6 312 8 41 25 42 1 30 7 16 11 34 12 322 38 57 42 64 98 143 129 245 213 179 233 342 60 83 157 198 206 232 268 228 235 237 232 208 176 174 172 174 179 185 184 199 206 208 201 198
13 22 44 59 20 14 341 41 28 11 30 34 354 319 104 130 171 276 301 171 184 181 190 218 241 99 190 200 206 204 202 203 222 209 196 227 248 242 190 155 170 212 213 210 203 173 181 186 199 205 212 221 234 238